DW3072 Weather Reports


Display with metric or nautical units.
time (UTC)temp
F
wind
direction
speed
MPH
gust
MPH
rain 1hr
in
rain 24hr
in
rain mn
in
humidity
%
barometer
mb
20190425195530 61 179 1.0 4.0 0.00 0.00 0.00 62 1012.0
20190425194538 61 179 0.0 4.0 0.00 0.00 0.00 65 1012.0
20190425193529 61 220 0.0 5.0 0.00 0.00 0.00 63 1012.1
20190425192541 61 201 0.0 3.0 0.00 0.00 0.00 62 1012.1
20190425191529 61 198 0.0 6.0 0.00 0.00 0.00 63 1012.2
20190425190547 61 225 0.0 3.0 0.00 0.00 0.00 61 1012.4
20190425185543 61 116 0.0 2.0 0.00 0.00 0.00 61 1012.6
20190425184535 61 188 0.0 5.0 0.00 0.00 0.00 63 1012.6
20190425183544 61 217 0.0 2.0 0.00 0.00 0.00 65 1012.7
20190425182531 62 242 0.0 7.0 0.00 0.00 0.00 60 1012.7
20190425181539 62 188 0.0 3.0 0.00 0.00 0.00 60 1012.8
20190425180541 62 214 0.0 4.0 0.00 0.00 0.00 58 1012.8
20190425175533 62 222 1.0 5.0 0.00 0.00 0.00 58 1012.9
20190425174540 62 231 0.0 5.0 0.00 0.00 0.00 56 1012.8
20190425173536 63 227 0.0 5.0 0.00 0.00 0.00 54 1012.7
20190425172544 63 177 1.0 5.0 0.00 0.00 0.00 55 1012.7
20190425170549 63 218 0.0 4.0 0.00 0.00 0.00 54 1012.7
20190425165530 63 236 0.0 0.0 0.00 0.00 0.00 57 1012.7
20190425164537 62 236 0.0 1.0 0.00 0.00 0.00 52 1013.0
20190425163526 62 81 1.0 5.0 0.00 0.00 0.00 55 1013.1
20190425162535 62 240 0.0 1.0 0.00 0.00 0.00 55 1013.2
20190425161527 63 158 0.0 3.0 0.00 0.00 0.00 56 1013.2
20190425160547 63 128 0.0 2.0 0.00 0.00 0.00 54 1013.2
20190425155541 63 175 0.0 3.0 0.00 0.00 0.00 55 1013.3
20190425154530 63 206 1.0 6.0 0.00 0.00 0.00 56 1013.5
20190425153541 62 167 0.0 5.0 0.00 0.00 0.00 55 1013.4
20190425152530 62 229 0.0 3.0 0.00 0.00 0.00 54 1013.5
20190425151538 62 210 0.0 2.0 0.00 0.00 0.00 56 1013.5
20190425150543 61 338 0.0 3.0 0.00 0.00 0.00 58 1013.5
20190425145536 60 19 0.0 1.0 0.00 0.00 0.00 58 1013.7
20190425144524 59 338 1.0 4.0 0.00 0.00 0.00 57 1013.8
20190425143532 58 354 0.0 0.0 0.00 0.00 0.00 57 1013.7
20190425142526 58 355 0.0 2.0 0.00 0.00 0.00 62 1013.8
20190425141534 58 359 0.0 4.0 0.00 0.00 0.00 60 1013.8
20190425140553 58 95 0.0 2.0 0.00 0.00 0.00 59 1014.0
20190425135527 57 13 0.0 3.0 0.00 0.01 0.00 61 1014.0
20190425134539 56 61 0.0 2.0 0.00 0.01 0.00 66 1014.1
20190425133528 55 360 0.0 4.0 0.00 0.01 0.00 65 1014.2
20190425132537 54 42 1.0 5.0 0.00 0.01 0.00 66 1014.1
20190425131525 54 325 2.0 6.0 0.00 0.01 0.00 65 1014.0
20190425130548 53 338 1.0 6.0 0.00 0.01 0.00 66 1014.1
20190425125542 52 68 1.0 5.0 0.00 0.01 0.00 69 1014.2
20190425124530 51 76 0.0 0.0 0.00 0.01 0.00 73 1014.2
20190425123539 50 326 1.0 4.0 0.00 0.01 0.00 73 1014.3
20190425122530 50 17 1.0 4.0 0.00 0.01 0.00 76 1014.1
20190425121538 49 44 3.0 7.0 0.00 0.01 0.00 79 1014.3
20190425120558 47 316 1.0 4.0 0.00 0.01 0.00 81 1014.2
20190425115536 45 34 0.0 2.0 0.00 0.01 0.00 87 1014.3
20190425114524 44 332 0.0 0.0 0.00 0.01 0.00 92 1014.3
20190425113532 43 332 0.0 0.0 0.00 0.01 0.00 93 1014.3
20190425112541 42 332 0.0 0.0 0.00 0.01 0.00 93 1014.2
20190425111532 42 332 0.0 0.0 0.00 0.01 0.00 92 1014.1
20190425110551 42 332 0.0 0.0 0.00 0.01 0.00 92 1014.1
20190425105524 42 332 0.0 0.0 0.00 0.01 0.00 91 1013.8
20190425104532 42 332 0.0 0.0 0.00 0.01 0.00 90 1014.0
20190425103524 42 332 0.0 0.0 0.00 0.01 0.00 89 1013.6
20190425102532 43 332 0.0 0.0 0.00 0.01 0.00 88 1013.5
20190425101540 43 332 0.0 0.0 0.00 0.01 0.00 88 1013.5
20190425100538 44 332 0.0 0.0 0.00 0.01 0.00 87 1013.3
20190425095537 44 332 0.0 0.0 0.00 0.01 0.00 86 1013.3
20190425094524 45 332 0.0 0.0 0.00 0.01 0.00 85 1013.4
20190425093532 45 332 0.0 0.0 0.00 0.01 0.00 86 1013.4
20190425092527 46 332 0.0 0.0 0.00 0.01 0.00 85 1013.3
20190425091546 46 332 0.0 0.0 0.00 0.01 0.00 85 1013.3
20190425090553 46 331 0.0 1.0 0.00 0.01 0.00 84 1013.3
20190425085526 47 16 0.0 0.0 0.00 0.01 0.00 84 1013.2
20190425084539 47 338 0.0 0.0 0.00 0.01 0.00 83 1013.2
20190425083528 47 358 0.0 1.0 0.00 0.01 0.00 84 1012.9
20190425082536 47 357 0.0 0.0 0.00 0.01 0.00 84 1012.4
20190425081524 47 7 0.0 4.0 0.00 0.01 0.00 86 1012.4
20190425080548 47 348 0.0 0.0 0.00 0.01 0.00 86 1012.3
20190425075542 47 348 0.0 0.0 0.00 0.01 0.00 85 1012.3
20190425074533 47 15 0.0 1.0 0.00 0.01 0.00 87 1012.2
20190425073538 47 1 0.0 5.0 0.00 0.01 0.00 88 1012.1
20190425072530 47 25 0.0 0.0 0.00 0.01 0.00 90 1012.0
20190425071538 46 343 0.0 0.0 0.00 0.01 0.00 90 1012.0
20190425070557 46 334 0.0 1.0 0.00 0.01 0.00 92 1012.2
20190425065531 46 52 0.0 3.0 0.00 0.01 0.00 93 1012.2
20190425064543 46 1 0.0 1.0 0.00 0.01 0.00 94 1012.1
20190425063531 46 2 0.0 1.0 0.00 0.01 0.00 94 1012.3
20190425062539 45 2 0.0 4.0 0.00 0.01 0.00 94 1012.6
20190425061532 45 227 0.0 0.0 0.00 0.01 0.00 94 1012.9
20190425060555 45 227 0.0 0.0 0.00 0.01 0.00 94 1012.9
20190425055530 45 227 0.0 0.0 0.00 0.01 0.00 93 1013.1
20190425054543 45 227 0.0 0.0 0.00 0.01 0.00 93 1013.2
20190425053536 45 227 0.0 0.0 0.00 0.01 0.00 93 1013.3
20190425052525 45 227 0.0 0.0 0.00 0.01 0.00 92 1013.1
20190425051533 45 227 0.0 0.0 0.00 0.01 0.00 93 1013.0
20190425050551 46 227 0.0 0.0 0.00 0.01 0.00 92 1012.9
20190425045531 46 227 0.0 0.0 0.00 0.04 0.00 92 1012.7
20190425044540 46 227 0.0 0.0 0.00 0.04 0.00 92 1012.7
20190425043528 46 227 0.0 0.0 0.00 0.04 0.00 91 1012.7
20190425042523 46 227 0.0 0.0 0.00 0.04 0.00 91 1012.6
20190425041536 47 227 0.0 0.0 0.00 0.04 0.00 91 1012.5
20190425040554 47 227 0.0 0.0 0.00 0.04 0.00 90 1012.5
20190425035527 47 227 0.0 0.0 0.00 0.05 0.04 90 1012.4
20190425034542 47 227 0.0 0.0 0.00 0.05 0.04 89 1012.2
20190425033530 48 227 0.0 0.0 0.00 0.05 0.04 89 1012.1
20190425032538 48 227 0.0 0.0 0.00 0.05 0.04 88 1011.9
20190425031526 49 227 0.0 0.0 0.00 0.05 0.04 88 1011.8
20190425030550 49 227 0.0 0.0 0.00 0.05 0.04 87 1011.4
20190425025526 49 227 0.0 0.0 0.00 0.20 0.04 86 1011.3
20190425024534 50 227 0.0 0.0 0.00 0.20 0.04 85 1011.2
20190425023542 50 227 0.0 0.0 0.00 0.20 0.04 86 1011.1
20190425022534 51 227 0.0 0.0 0.00 0.20 0.04 85 1011.0
20190425021542 51 227 0.0 0.0 0.00 0.20 0.04 84 1010.9
20190425020540 52 227 0.0 0.0 0.00 0.20 0.04 83 1010.8
20190425015534 52 227 0.0 0.0 0.00 0.20 0.04 82 1010.9
20190425014529 52 227 0.0 0.0 0.00 0.20 0.04 81 1010.8
20190425013542 53 227 0.0 0.0 0.00 0.20 0.04 80 1010.8
20190425012531 53 227 0.0 0.0 0.00 0.20 0.04 79 1010.6
20190425011543 54 227 0.0 0.0 0.00 0.20 0.04 77 1010.6
20190425010541 55 227 0.0 0.0 0.00 0.20 0.04 76 1010.4
20190425005533 55 227 0.0 0.0 0.00 0.20 0.04 74 1010.2
20190425004526 56 227 0.0 0.0 0.00 0.20 0.04 73 1010.3
20190425003537 57 227 0.0 0.0 0.00 0.20 0.04 71 1010.1
20190425002527 58 227 0.0 0.0 0.00 0.20 0.04 68 1009.9
20190425001535 59 227 0.0 0.0 0.00 0.20 0.04 67 1009.7
20190425000557 60 227 0.0 0.0 0.00 0.20 0.04 60 1009.8
20190424235535 61 227 0.0 0.0 0.00 0.20 0.04 60 1009.7
20190424234542 62 227 0.0 0.0 0.00 0.20 0.04 56 1009.5
20190424233529 63 227 0.0 0.0 0.00 0.20 0.04 51 1009.3
20190424232536 64 227 0.0 0.0 0.00 0.20 0.04 51 1009.1
20190424231527 65 227 0.0 0.0 0.00 0.20 0.04 51 1009.0
20190424230545 65 227 0.0 4.0 0.00 0.20 0.04 48 1008.9
20190424225538 66 187 0.0 1.0 0.00 0.20 0.04 49 1008.8
20190424224532 67 252 0.0 1.0 0.00 0.20 0.04 48 1008.7
20190424223540 67 246 0.0 0.0 0.00 0.20 0.04 47 1008.6
20190424222528 68 245 0.0 2.0 0.00 0.20 0.04 45 1008.6
20190424221537 68 223 0.0 9.0 0.00 0.20 0.04 43 1008.6
20190424220540 68 239 0.0 4.0 0.00 0.20 0.04 41 1008.6
20190424215538 68 262 0.0 1.0 0.00 0.20 0.04 42 1008.5
20190424214530 68 263 1.0 4.0 0.00 0.20 0.04 42 1008.5
20190424213538 68 229 0.0 5.0 0.00 0.20 0.04 43 1008.4
20190424212529 68 227 0.0 8.0 0.00 0.20 0.04 42 1008.3
20190424211536 68 271 1.0 5.0 0.00 0.20 0.04 41 1008.3
20190424210554 68 176 0.0 3.0 0.00 0.20 0.04 42 1008.1
20190424205527 68 227 0.0 4.0 0.00 0.20 0.04 41 1008.1
20190424204538 68 210 0.0 5.0 0.00 0.20 0.04 43 1008.1
20190424203525 68 234 0.0 6.0 0.00 0.20 0.04 43 1007.9
20190424202532 68 269 0.0 7.0 0.00 0.20 0.04 42 1008.1
20190424201539 68 348 1.0 5.0 0.00 0.20 0.04 43 1008.0
20190424200541 67 272 0.0 5.0 0.00 0.20 0.04 41 1008.0